CZ-6A DEB

Satellite information

Favourite Embed

Satellite Type and Status

DEBRISIN ORBIT

Key statistics

Satellite CZ-6A DEB at a glance.

Uptime

1129

Days in orbit

Revolutions

≈ 14.2

Per day

Orbit

SSO

Sun Synchronous Orbit

Inclination

98.8

Latest

Satellite identification and parameters

Extended collection of information and parameters for CZ-6A DEB.

Object identification

Identified? True

Debris? True

Object name: CZ-6A DEB

International designator: 2022-151WK

Object number (NORAD): 55218

Object ID (CCSDS): 55218

Country: PEOPLES REPUBLIC OF CHINA (PRC)

Current information (Y/N): Y

RCS size: SMALL

Orbital parameters

Period: 101.605 minutes

Inclination: 98.8217 deg

SMA: 7212.773 km

Apoapsis: 869.544 km

Periapsis: 799.733 km

RAAN: 347.6356 deg

Eccentricy: 0.00483944

Argument of periapsis: 134.9292 deg

Mean anomaly: 225.5825 deg

Mean motion: 14.17259333 rev/day

Mean motion (dot): 0.00004258 rev/day2

B* drag term: 0.0021050944 1/REarth

Two-line elements (TLE)

Creation date: Dec. 13, 2025, 4:32 a.m.

Reference frame: TEME

Reference center: EARTH

Epoch: Dec. 12, 2025, 10:50 p.m. UTC

TLE line 0: 0 CZ-6A DEB

TLE line 1: 1 55218U 22151WK 25346.95180095 .00004258 00000-0 21051-2 0 9999

TLE line 2: 2 55218 98.8217 347.6356 0048394 134.9292 225.5825 14.17259333158719

Live tracking on map

Real-time ground track for satellite CZ-6A DEB.

In-orbit conjunctions

A list of the most updated potential collisions computed for object CZ-6A DEB.

Target Orbit TCA Probability of collision Miss distance Type
FENGYUN 1C DEB SSO 2025-09-11 06:34:16 0.000110206 158.0 (m) DEBRIS
FENGYUN 1C DEB SSO 2025-07-15 16:04:23 0.0001277214 118.0 (m) DEBRIS
FENGYUN 1C DEB SSO 2025-05-27 10:03:30 0.0001781762 126.0 (m) DEBRIS
CZ-6A DEB LEO 2024-09-22 13:19:58 0.0001196431 393.0 (m) DEBRIS

Associated space launch

Chinese satellite reported for atmospheric/ocean/environmental/spatial parameter research purposes, details TBD.

CZ-6A DEB was lifted into orbit during the mission ‘Long March 6A | Yunhai 3’, on board a Long March 6A space rocket.

The launch took place on Nov. 11, 2022, 10:52 p.m. from Launch Complex 9A.

For more information about the launch, click the button.

Launch to space Long March 6A | Yunhai 3
Long March 6A | Yunhai 3

Agency: N/A

Status: Launch Successful

Launch date: Nov. 11, 2022, 10:52 p.m. UTC

Rocket: Long March 6A

Launch pad: Launch Complex 9A

Location: Taiyuan Satellite Launch Center, People's Republic of China

...

Latest news about this satellite

There are no fresh news available about this satellite. Check back as we update our databases every day.


Newsletter sign-up

Weekly statistics, charts and insights to help you stay on top of the space industry.